RH
2 3 6 19 31 45 73 74 75 88 90 30 80 95 32 34 20 9 3 3 3 3 3 3 4 4 4 4 4 4 4 3 3 57 46 29 15 12 19 13 11 9 15 12
2 2 5 29 44 48 72 72 70 87 85 88 84 96 98 54 30 19 10 4 3 3 2 2 2 2 2 2 2 2 2 3 5 23 15 11 8 6 6 6 7 16 13 7
2 2 3 11 42 53 68 69 69 76 83 98 86 97 90 92 44 28 19 13 8 4 2 3 4 4 3 3 3 3 3 3 4 8 14 29 27 18 15 6 6 6 7 7
2 2 2 4 12 38 61 68 71 71 88 98 87 83 97 70 89 35 27 21 18 20 7 2 3 5 15 8 4 3 3 4 4 11 10 19 18 7 6 6 7 6 6 6
3 3 2 2 3 20 35 66 70 72 79 90 86 77 90 99 85 74 44 41 32 24 27 39 34 30 26 21 18 7 4 4 4 5 9 11 10 7 6 6 5 4 5 5
2 3 3 2 2 5 23 64 70 65 68 83 90 88 79 92 94 97 85 64 44 41 46 48 54 55 48 41 28 25 18 7 6 6 7 7 11 8 5 5 4 6 6 10
4 3 3 3 2 2 9 53 65 65 64 63 79 76 93 88 85 77 85 99 80 47 45 47 46 44 33 23 26 40 47 44 38 13 6 6 6 4 12 10 7 8 11 14
5 4 3 3 2 3 2 19 51 64 61 60 66 72 67 92 87 90 89 82 91 67 54 52 53 25 30 34 21 16 27 44 49 42 13 7 4 7 13 9 10 9 9 11
8 6 9 4 4 4 10 15 41 57 61 60 60 64 82 88 89 86 81 79 86 68 68 53 49 49 41 18 24 18 15 16 30 24 12 10 15 14 11 7 7 10 32 50
8 36 33 14 15 4 7 22 40 58 57 60 57 61 71 75 72 81 84 79 83 68 68 59 55 54 58 41 29 12 12 7 7 17 19 19 12 8 32 33 31 35 36 52
9 12 40 60 7 4 5 8 44 52 59 56 60 63 57 74 92 63 73 73 79 85 60 61 61 53 61 53 32 30 15 3 4 8 10 9 19 32 28 25 33 40 36 70
12 14 28 40 49 44 37 28 37 54 59 60 55 54 68 64 75 71 73 76 82 83 59 62 65 56 43 45 47 28 20 6 6 7 10 35 31 28 38 45 47 51 52 60
52 17 48 70 51 41 12 10 31 38 60 63 63 55 70 82 70 75 75 55 68 91 97 59 53 57 40 48 54 28 26 13 8 14 29 32 33 34 33 34 40 64 72 62
39 76 21 61 43 52 46 40 40 39 41 51 63 66 71 68 74 77 61 50 70 78 62 48 47 56 48 44 58 45 30 27 27 27 30 36 40 40 39 42 59 73 84 81
17 13 57 31 82 74 51 42 41 40 46 50 51 63 71 74 74 74 75 56 48 64 46 29 35 31 40 43 58 46 36 42 39 32 31 34 44 42 34 45 61 69 90 92
17 14 22 72 79 76 70 63 55 50 42 44 49 54 59 65 93 85 73 39 34 47 73 26 33 48 44 46 61 55 36 37 46 29 25 26 43 33 39 45 61 67 76 82
21 58 28 20 81 90 79 65 67 63 59 55 51 31 56 68 71 73 78 80 26 17 33 37 38 51 50 65 72 69 59 50 29 26 27 33 30 32 52 60 70 82 97 94
28 35 85 91 92 95 44 88 78 74 72 76 70 62 52 42 50 70 69 73 24 10 22 34 34 46 54 71 73 68 58 38 26 22 33 43 56 65 78 80 77 80 91 92
82 58 89 96 86 82 76 94 71 70 69 79 71 84 72 57 50 46 11 10 14 14 17 66 48 50 50 63 67 64 51 33 28 33 40 48 58 69 74 78 60 67 85 100
29 70 99 100 90 92 92 92 96 88 67 68 73 73 76 63 53 32 7 4 6 9 14 26 51 54 52 63 52 48 35 37 42 51 49 50 50 56 63 62 68 72 92 97
28 32 38 91 98 90 96 71 77 93 72 76 57 49 56 70 54 51 70 32 8 7 25 29 52 56 61 68 56 55 52 53 57 61 54 54 50 53 62 61 72 88 99 98
26 23 70 97 99 92 89 78 77 86 56 53 62 59 36 48 79 80 70 53 20 7 21 36 49 54 60 56 54 58 54 57 60 62 62 57 54 56 66 65 74 77 97 100
47 57 92 100 86 84 65 90 53 41 40 57 69 68 52 53 78 66 44 24 17 13 39 50 53 60 60 56 59 63 62 64 68 75 82 63 58 60 60 57 66 78 92 87
99 100 100 97 89 88 88 68 52 19 30 40 72 72 59 52 30 16 15 13 19 45 54 54 58 60 59 60 61 66 65 68 70 72 78 68 60 58 55 59 72 89 57 26
64 94 95 84 67 53 56 59 22 20 21 25 72 70 50 40 29 30 25 40 37 49 55 58 57 59 61 62 64 66 66 74 79 70 72 64 64 63 63 65 78 88 39 22
96 99 73 82 68 42 54 35 26 25 62 34 79 94 68 51 47 33 52 57 55 56 61 64 60 57 64 66 67 70 81 79 76 79 70 60 62 68 63 70 76 48 36 25
Wind_Speed
32 33 31 30 29 26 18 17 19 19 25 23 19 16 16 12 11 10 10 9 8 8 8 7 9 10 10 11 11 11 10 9 8 7 5 4 5 4 3 5 5 6 6 9
38 35 31 34 34 33 25 23 20 17 28 22 18 17 18 17 15 13 12 12 10 9 10 10 10 11 12 13 13 12 12 10 9 8 8 7 7 6 6 7 8 8 10 12
34 31 33 38 40 37 31 27 23 22 29 20 22 20 22 25 18 15 15 14 13 12 12 11 11 11 11 12 14 14 12 11 11 11 11 10 9 9 9 10 11 13 15 18
28 34 38 40 39 40 34 30 26 25 34 27 26 22 27 24 22 19 16 14 14 14 13 14 15 14 13 13 11 11 11 13 13 12 13 14 12 13 15 15 17 19 20 22
23 30 38 42 39 42 35 30 28 28 31 22 26 27 23 22 22 23 18 15 15 16 17 17 16 17 16 16 14 14 12 14 15 14 15 15 15 17 19 20 22 23 23 18
25 27 34 40 42 45 38 31 32 31 31 37 31 30 26 28 22 26 22 20 17 17 18 19 15 14 15 16 16 17 17 17 17 17 17 18 18 20 23 24 23 20 17 15
26 28 29 37 45 46 46 41 37 38 40 40 30 37 26 28 26 21 19 21 24 20 20 18 17 15 14 13 17 21 19 18 20 21 20 19 20 21 22 20 17 16 14 16
34 34 32 32 39 46 50 47 44 43 36 35 32 37 36 31 24 21 21 21 23 28 22 15 13 12 8 11 13 13 18 22 22 20 23 22 22 21 19 17 15 15 15 17
35 38 32 34 36 46 47 54 43 38 33 34 33 32 30 30 33 33 27 21 25 28 23 14 12 9 9 9 7 12 15 18 21 20 20 20 19 17 16 16 17 14 14 17
37 32 33 33 37 42 50 43 48 50 45 41 35 32 30 34 38 32 32 25 24 26 25 21 16 12 12 10 9 10 16 17 18 22 21 18 13 10 7 9 10 14 18 19
38 39 32 30 40 38 47 55 47 45 48 45 39 35 32 27 26 30 27 23 23 24 22 17 16 13 16 16 12 13 14 16 12 12 14 12 10 10 9 8 10 14 19 18
42 39 40 34 33 35 39 42 49 49 51 50 44 38 30 32 27 28 29 23 17 22 28 24 23 21 16 13 17 15 15 14 15 16 12 9 10 8 8 10 16 15 21 17
38 43 36 35 30 36 42 43 46 51 43 52 50 47 33 21 26 27 29 35 22 25 26 31 28 29 20 18 20 17 16 13 14 13 13 13 13 14 17 21 17 18 22 27
46 36 43 37 36 29 33 37 43 44 55 50 52 44 38 38 31 35 37 38 34 35 31 34 32 32 29 22 23 22 20 19 18 15 16 17 17 18 19 15 17 23 29 31
49 48 39 41 32 26 31 34 38 47 47 52 47 46 43 39 38 34 28 34 33 26 34 29 33 35 36 29 26 23 21 23 22 18 20 19 18 17 17 20 24 29 32 35
48 49 43 39 30 34 32 32 36 37 45 50 47 50 43 44 37 34 41 46 41 36 26 31 33 33 34 27 28 26 23 24 27 22 22 21 16 14 18 22 24 28 35 39
50 44 47 47 36 31 34 38 37 38 39 40 48 56 44 45 46 45 46 41 39 34 37 34 31 31 32 29 31 31 30 29 28 24 20 22 22 18 20 27 30 33 39 43
52 52 40 38 33 38 39 30 33 37 41 40 40 39 43 56 59 51 48 40 36 35 36 37 32 32 35 35 35 34 36 32 27 24 22 22 24 24 25 29 33 38 41 45
44 51 43 37 38 37 39 33 40 36 35 34 40 37 41 41 42 51 58 58 58 47 38 36 36 34 35 38 37 37 39 35 27 21 19 21 23 28 30 33 36 41 45 49
57 51 42 37 42 40 32 46 28 31 41 38 40 43 36 37 41 45 41 46 53 47 41 49 39 34 37 38 35 35 37 35 31 27 25 25 26 31 34 37 42 44 51 51
57 57 54 45 39 35 44 44 44 40 34 30 32 38 39 37 41 31 27 38 50 39 44 49 43 36 36 39 38 34 36 35 34 33 31 33 33 35 37 38 43 51 58 56
56 57 50 41 42 40 42 43 45 37 41 31 29 29 32 36 34 39 45 49 40 46 50 50 46 38 36 36 30 34 35 37 41 40 36 37 39 42 43 44 47 50 57 60
50 53 41 36 38 48 47 45 40 30 32 28 28 32 28 30 44 49 48 42 37 45 48 50 47 41 39 35 32 33 38 41 45 44 41 39 44 43 45 47 49 51 58 61
47 42 41 49 48 49 45 47 38 34 32 27 31 37 33 34 33 35 33 37 41 48 49 49 47 42 41 39 37 36 39 43 44 49 45 42 46 44 49 52 55 57 54 56
46 52 54 53 55 52 49 42 32 30 29 30 36 39 37 34 36 36 38 38 42 48 48 49 42 42 42 42 41 44 46 42 43 44 44 47 46 51 51 54 55 59 55 53
42 43 33 61 58 48 41 37 30 29 26 31 37 36 34 36 37 37 37 35 35 39 42 43 43 42 42 45 47 46 48 44 45 44 42 50 54 52 53 56 56 52 52 52
Wind_Direction
226 225 225 224 224 206 201 219 228 213 255 237 220 197 230 225 217 200 183 185 188 187 187 199 214 218 222 226 233 238 243 249 247 259 248 225 223 240 269 293 301 307 319 321
227 228 226 225 221 217 201 211 223 224 234 225 217 228 238 235 222 212 203 196 192 197 211 206 207 216 223 227 234 247 251 244 249 257 240 235 242 254 270 287 295 302 310 314
236 235 230 226 221 219 216 206 213 218 241 212 218 220 233 241 230 219 213 214 211 204 211 219 220 220 225 230 232 238 244 242 248 258 253 248 255 267 273 280 288 294 299 303
236 228 226 231 228 223 220 212 206 213 230 219 234 223 239 246 242 231 225 220 224 225 220 222 229 234 236 239 247 244 237 240 242 247 250 253 258 268 275 281 287 291 297 301
249 234 229 230 232 229 220 216 214 213 228 248 233 234 236 223 243 260 232 224 228 232 231 229 237 240 244 251 248 246 247 247 246 248 255 262 270 277 283 286 289 295 298 295
246 239 229 231 231 231 226 214 220 224 222 237 223 231 232 241 214 232 248 253 227 235 238 238 237 251 253 255 249 245 246 249 251 253 257 264 272 281 287 288 289 296 299 295
249 248 244 228 230 229 224 219 217 221 226 228 229 231 217 228 237 254 235 249 273 239 242 245 247 246 251 262 257 255 253 255 260 256 254 261 271 282 291 290 290 295 296 293
251 244 242 239 235 231 224 220 218 219 222 232 228 229 231 235 221 223 224 230 246 256 244 260 266 264 250 269 269 253 249 250 251 252 252 260 270 277 285 286 289 291 291 291
250 250 238 240 234 231 222 223 220 225 232 233 233 239 233 226 233 236 241 236 244 251 244 250 247 266 286 299 272 261 251 246 243 240 244 254 267 276 286 287 285 282 300 299
242 235 247 238 236 231 221 225 217 218 222 230 233 230 236 238 233 224 232 234 241 244 241 260 243 271 288 289 299 287 262 253 241 238 245 256 255 253 281 293 291 288 305 309
235 236 233 227 240 238 227 215 222 225 224 225 230 232 233 244 236 228 228 233 236 240 246 239 243 253 267 275 291 280 281 257 232 220 223 228 231 255 272 298 331 331 324 318
240 231 235 231 231 236 228 226 215 224 223 226 226 230 236 224 242 218 205 205 236 249 256 241 249 258 266 281 291 282 270 251 226 217 204 223 250 253 274 304 334 337 322 328
226 231 229 233 224 227 237 228 221 223 227 230 227 228 210 221 232 242 230 217 202 230 235 238 243 253 263 268 287 286 266 246 232 224 228 242 249 266 287 306 320 335 336 336
222 225 229 230 242 231 229 229 218 224 227 231 230 228 223 231 236 225 235 219 218 227 231 243 241 241 252 258 268 282 263 253 256 265 266 265 274 290 296 305 330 331 327 326
229 231 224 231 211 229 225 231 227 223 230 229 232 232 227 229 231 238 236 222 221 227 236 241 238 244 244 249 255 267 259 260 266 274 280 286 287 299 309 313 323 327 325 318
227 229 223 221 227 223 219 229 239 238 230 233 234 231 229 231 222 229 235 229 224 228 237 236 232 240 240 236 251 262 263 263 267 274 281 291 288 301 317 322 323 323 322 317
221 224 222 225 218 223 232 226 226 232 240 242 236 236 228 223 224 231 237 238 233 236 235 237 227 236 240 241 252 261 267 271 263 269 283 291 293 279 299 306 308 311 311 311
221 224 221 221 219 226 231 232 240 243 239 237 245 247 239 234 226 220 224 237 242 235 235 235 229 232 238 237 245 254 264 272 263 256 271 287 296 294 296 301 309 310 308 316
211 221 222 218 218 232 227 227 223 235 230 240 240 239 246 242 240 240 237 244 249 246 236 232 230 234 233 238 246 255 264 264 263 252 271 288 300 298 297 299 302 301 306 307
217 216 211 223 217 223 235 248 246 235 242 232 234 228 233 237 237 238 239 239 239 237 234 233 223 231 233 239 247 249 257 261 263 254 268 285 289 291 294 296 298 301 302 306
214 218 223 219 219 228 234 233 238 236 241 242 242 238 227 221 235 233 230 232 233 226 220 225 221 229 232 237 247 250 259 263 264 265 270 277 288 291 291 296 300 305 301 302
215 218 216 223 222 222 232 237 243 242 238 248 256 250 242 229 230 224 212 225 224 216 218 221 222 224 231 236 244 253 263 265 266 269 269 278 286 286 291 292 295 296 299 301
219 218 213 225 228 226 229 235 240 238 243 256 243 233 235 233 221 224 223 226 217 209 211 217 220 223 229 233 242 249 255 262 263 267 265 274 278 283 287 288 293 294 296 297
208 209 208 216 220 222 227 238 247 251 247 251 234 224 226 231 240 230 218 209 207 202 209 216 220 226 229 237 244 254 255 258 261 264 273 277 286 285 288 289 289 292 294 295
211 201 200 217 224 225 228 240 249 250 242 249 230 223 222 223 220 213 203 202 203 205 213 217 222 228 234 239 244 249 248 248 256 267 271 283 278 283 284 285 290 288 289 292
189 180 196 224 222 225 233 241 249 246 250 243 223 232 213 217 223 211 209 212 209 209 215 222 226 232 233 238 243 246 252 259 260 266 274 280 285 282 281 284 284 280 292 295